Date String (YYYY-MM-DD hh:mm:ss) UTC,Instrument flags,Ambient pressure (hPa),Sample flow (lpm),Bypass flow (lpm),Sample temperature (°C),Ambient temperature (°C),ASC tube jacket temperature (°C),LED temperature (°C),Box temperature (°C),Sample RH (%),Span deviation,Mass concentration (μg/m³),Mass concentration (μg/m³),Mass concentration (μg/m³)
DateTimeUTC,F1_M11,P_M11,Q1_M11,Q2_M11,T1_M11,T2_M11,T3_M11,T4_M11,T5_M11,U1_M11,ZSPAN_M11,X0_M11,X2_M11,X1_M11
2021-11-17 19:00:00,,0831.8,5.00,0.00,23.1,22.4,00.0,32.1,24.9,10.0,0000.0,0010.09,0003.51,0001.58
2021-11-17 19:01:00,,0831.8,5.00,0.00,23.1,22.4,00.0,32.1,24.9,09.9,0000.0,0010.08,0003.44,0001.57
2021-11-17 19:02:00,,0831.7,5.00,0.00,23.1,22.4,00.0,32.1,25.0,10.0,0000.0,0009.52,0003.48,0001.59
2021-11-17 19:03:00,,0831.7,5.01,0.00,23.1,22.4,00.0,32.1,25.0,10.0,0000.0,0009.75,0003.46,0001.59
2021-11-17 19:04:00,,0831.7,5.00,0.00,23.1,22.4,00.0,32.1,25.0,09.8,0000.0,0010.80,0003.41,0001.59
2021-11-17 19:05:00,,0831.7,5.01,0.00,23.1,22.4,00.0,32.1,24.9,09.9,0000.0,0011.72,0003.43,0001.60
2021-11-17 19:06:00,,0831.7,4.99,0.00,23.1,22.4,00.0,32.1,24.9,09.9,0000.0,0012.74,0003.48,0001.60
2021-11-17 19:07:00,,0831.7,5.01,0.00,23.1,22.4,00.0,32.1,24.9,09.9,0000.0,0013.23,0003.47,0001.60
2021-11-17 19:08:00,,0831.7,5.00,0.00,23.1,22.4,00.0,32.1,24.9,09.9,0000.0,0013.64,0003.49,0001.62
2021-11-17 19:09:00,,0831.6,4.99,0.00,23.1,22.4,00.0,32.1,24.9,10.0,0000.0,0014.08,0003.54,0001.65
2021-11-17 19:10:00,,0831.7,5.01,0.00,23.1,22.4,00.0,32.1,24.9,10.0,0000.0,0014.22,0003.57,0001.68
2021-11-17 19:11:00,,0831.6,5.01,0.00,23.2,22.4,00.0,32.1,25.0,10.0,0000.0,0014.43,0003.60,0001.71
2021-11-17 19:12:00,,0831.6,4.99,0.00,23.2,22.4,00.0,32.1,25.0,09.9,0000.0,0014.43,0003.59,0001.74
2021-11-17 19:13:00,,0831.5,5.01,0.00,23.2,22.4,00.0,32.1,25.0,10.0,0000.0,0015.51,0003.55,0001.75
2021-11-17 19:14:00,,0831.5,4.99,0.00,23.2,22.4,00.0,32.1,25.0,10.0,0000.0,0016.03,0003.54,0001.75
2021-11-17 19:15:00,,0831.5,5.00,0.00,23.2,22.4,00.0,32.1,25.0,09.9,0000.0,0014.93,0003.55,0001.75
2021-11-17 19:16:00,,0831.5,5.01,0.00,23.2,22.4,00.0,32.1,25.0,09.8,0000.0,0014.77,0003.52,0001.76
2021-11-17 19:17:00,,0831.5,5.00,0.00,23.2,22.4,00.0,32.1,25.0,09.8,0000.0,0013.71,0003.47,0001.77
2021-11-17 19:18:00,,0831.4,4.99,0.00,23.1,22.4,00.0,32.1,25.0,09.8,0000.0,0012.96,0003.46,0001.79
2021-11-17 19:19:00,,0831.4,5.00,0.00,23.1,22.4,00.0,32.1,25.0,09.8,0000.0,0013.28,0003.45,0001.80
2021-11-17 19:20:00,,0831.5,5.00,0.00,23.2,22.4,00.0,32.1,25.0,09.9,0000.0,0013.52,0003.41,0001.77
2021-11-17 19:21:00,,0831.4,5.00,0.00,23.2,22.4,00.0,32.1,25.0,09.9,0000.0,0013.89,0003.41,0001.76
2021-11-17 19:22:00,,0831.4,5.01,0.00,23.2,22.4,00.0,32.1,25.0,10.2,0000.0,0013.74,0003.38,0001.76
2021-11-17 19:23:00,,0831.5,5.00,0.00,23.2,22.4,00.0,32.1,25.0,10.1,0000.0,0014.01,0003.40,0001.75
2021-11-17 19:24:00,,0831.4,4.99,0.00,23.2,22.5,00.0,32.2,25.0,10.2,0000.0,0013.08,0003.45,0001.74
2021-11-17 19:25:00,,0831.4,5.00,0.00,23.2,22.5,00.0,32.2,25.0,10.2,0000.0,0011.94,0003.46,0001.74
2021-11-17 19:26:00,,0831.5,5.00,0.00,23.2,22.5,00.0,32.2,25.0,10.3,0000.0,0011.65,0003.44,0001.75
2021-11-17 19:27:00,,0831.4,5.01,0.00,23.2,22.5,00.0,32.2,25.0,10.4,0000.0,0012.48,0003.52,0001.75
2021-11-17 19:28:00,,0831.4,5.00,0.00,23.2,22.5,00.0,32.2,25.0,10.4,0000.0,0012.81,0003.58,0001.76
2021-11-17 19:29:00,,0831.4,5.00,0.00,23.2,22.5,00.0,32.2,25.0,10.5,0000.0,0013.83,0003.64,0001.76
2021-11-17 19:30:00,,0831.4,4.99,0.00,23.2,22.5,00.0,32.2,25.0,10.3,0000.0,0014.30,0003.73,0001.76
2021-11-17 19:31:00,,0831.4,5.01,0.00,23.2,22.5,00.0,32.2,25.0,10.3,0000.0,0013.81,0003.80,0001.79
2021-11-17 19:32:00,,0831.4,5.00,0.00,23.2,22.5,00.0,32.2,25.0,10.4,0000.0,0013.57,0003.80,0001.79
2021-11-17 19:33:00,,0831.3,4.99,0.00,23.2,22.5,00.0,32.2,25.0,09.7,0000.0,0013.73,0003.79,0001.80
2021-11-17 19:34:00,,0831.4,5.01,0.00,23.2,22.5,00.0,32.2,25.0,09.7,0000.0,0013.93,0003.80,0001.81
2021-11-17 19:35:00,,0831.4,4.99,0.00,23.2,22.6,00.0,32.2,25.1,09.9,0000.0,0014.04,0003.78,0001.84
2021-11-17 19:36:00,,0831.4,5.01,0.00,23.3,22.6,00.0,32.2,25.1,10.0,0000.0,0014.28,0003.75,0001.86
2021-11-17 19:37:00,,0831.4,4.99,0.00,23.3,22.6,00.0,32.2,25.1,10.3,0000.0,0014.56,0003.73,0001.88
2021-11-17 19:38:00,,0831.5,5.00,0.00,23.3,22.7,00.0,32.2,25.2,10.3,0000.0,0013.47,0003.70,0001.87
2021-11-17 19:39:00,,0831.4,5.01,0.00,23.3,22.7,00.0,32.2,25.2,10.2,0000.0,0012.93,0003.71,0001.89
2021-11-17 19:40:00,,0831.4,4.99,0.00,23.4,22.7,00.0,32.2,25.2,10.3,0000.0,0012.23,0003.67,0001.88
2021-11-17 19:41:00,,0831.4,4.99,0.00,23.4,22.8,00.0,32.3,25.2,10.1,0000.0,0011.13,0003.60,0001.89
2021-11-17 19:42:00,,0831.4,5.01,0.00,23.4,22.8,00.0,32.3,25.3,10.3,0000.0,0011.38,0003.52,0001.89
2021-11-17 19:43:00,,0831.4,4.99,0.00,23.4,22.8,00.0,32.3,25.3,10.2,0000.0,0011.43,0003.51,0001.90
2021-11-17 19:44:00,,0831.3,5.01,0.00,23.5,22.9,00.0,32.3,25.3,10.0,0000.0,0011.68,0003.51,0001.92
2021-11-17 19:45:00,,0831.4,5.00,0.00,23.5,22.9,00.0,32.4,25.4,09.8,0000.0,0011.23,0003.52,0001.92
2021-11-17 19:46:00,,0831.4,5.00,0.00,23.5,22.9,00.0,32.4,25.4,09.8,0000.0,0011.33,0003.58,0001.93
2021-11-17 19:47:00,,0831.3,4.99,0.00,23.5,22.9,00.0,32.4,25.4,09.9,0000.0,0011.38,0003.68,0001.94
2021-11-17 19:48:00,,0831.3,5.01,0.00,23.6,22.9,00.0,32.4,25.4,09.8,0000.0,0011.29,0003.76,0001.96
2021-11-17 19:49:00,,0831.2,5.01,0.00,23.6,22.9,00.0,32.4,25.5,09.7,0000.0,0011.85,0003.76,0001.98
2021-11-17 19:50:00,,0831.2,4.99,0.00,23.6,23.0,00.0,32.4,25.5,09.8,0000.0,0012.42,0003.78,0001.99
2021-11-17 19:51:00,,0831.2,5.02,0.00,23.6,23.0,00.0,32.5,25.5,09.8,0000.0,0012.77,0003.76,0002.03
2021-11-17 19:52:00,,0831.2,4.99,0.00,23.6,23.0,00.0,32.5,25.5,09.7,0000.0,0013.13,0003.78,0002.06
2021-11-17 19:53:00,,0831.3,4.99,0.00,23.7,23.0,00.0,32.5,25.5,09.9,0000.0,0013.83,0003.79,0002.05
2021-11-17 19:54:00,,0831.4,5.01,0.00,23.7,23.1,00.0,32.5,25.5,09.7,0000.0,0013.69,0003.82,0002.07
2021-11-17 19:55:00,,0831.2,4.99,0.00,23.7,23.1,00.0,32.5,25.5,09.8,0000.0,0014.17,0003.91,0002.10
2021-11-17 19:56:00,,0831.3,5.02,0.00,23.7,23.1,00.0,32.6,25.6,09.9,0000.0,0014.35,0003.95,0002.11
2021-11-17 19:57:00,,0831.3,5.00,0.00,23.7,23.1,00.0,32.6,25.6,09.9,0000.0,0014.61,0003.97,0002.13
2021-11-17 19:58:00,,0831.3,5.00,0.00,23.8,23.1,00.0,32.6,25.6,09.8,0000.0,0014.73,0003.91,0002.14
2021-11-17 19:59:00,,0831.3,4.99,0.00,23.8,23.1,00.0,32.6,25.6,09.7,0000.0,0014.78,0003.92,0002.14
